Regional Weather Roundup
Issued by NWS Little Rock, AR

Home | Current Version | Previous Version | Text Only | Print | Product List | Glossary Off
Versions: 1 2 3 4 5 6 7 8 9 10 11 12 13 14 15 16 17 18 19 20 21 22 23 24 25 26 27 28 29 30 31 32

000
ASUS44 KLZK 260205
RWRLZK

WEATHER ROUNDUP FOR ARKANSAS
NATIONAL WEATHER SERVICE LITTLE ROCK AR
800 PM CST SAT FEB 25 2017

NOTE: "FAIR" INDICATES FEW OR NO CLOUDS BELOW 12,000 FEET WITH NO
SIGNIFICANT WEATHER AND/OR OBSTRUCTIONS TO VISIBILITY.

ARZ001-003-010-029-260300-
NORTHWEST ARKANSAS

CITY           SKY/WX    TMP DP  RH WIND       PRES   REMARKS
FAYETTEVILLE   CLEAR     31  20  63 CALM      30.09F
FORT SMITH     CLEAR     40  24  53 CALM      30.11F
HARRISON       CLEAR     34  15  46 CALM      30.09F
BENTONVILLE    CLEAR     37  18  44 CALM      30.09S
ROGERS         CLEAR     38  15  39 CALM      30.09F
SILOAM SPGS    CLEAR     37  10  32 SE3       30.09S
HIGHFILL       CLEAR     35  15  44 CALM      30.08F
SPRINGDALE     CLEAR     36  18  48 CALM      30.10F
$$

ARZ004-005-016-260300-
NORTH CENTRAL ARKANSAS

CITY           SKY/WX    TMP DP  RH WIND       PRES   REMARKS
BATESVILLE     CLEAR     39  16  38 CALM      30.14S
FLIPPIN        CLEAR     36  18  48 CALM      30.10S
MTN HOME       CLEAR     37  13  37 CALM      30.10S
$$

ARZ040-041-260300-
WEST CENTRAL ARKANSAS

CITY           SKY/WX    TMP DP  RH WIND       PRES   REMARKS
MENA           CLEAR     36  25  64 CALM      30.10S
MOUNT IDA      CLEAR     39  24  55 CALM      30.09S HAZE
$$

ARZ009-017-025-026-028-260300-
NORTHEAST ARKANSAS

CITY           SKY/WX    TMP DP  RH WIND       PRES   REMARKS
CORNING        CLOUDY    37  27  65 W5        30.15R
JONESBORO      CLEAR     35  26  69 CALM      30.15R
NEWPORT        CLEAR     43  21  41 CALM      30.15R
WALNUT RIDGE   PTCLDY    41  18  38 CALM      30.14S
BLYTHEVILLE    CLEAR     38  24  57 S3        30.15S
$$

ARZ022-023-033-042-044-260300-
CENTRAL ARKANSAS

CITY           SKY/WX    TMP DP  RH WIND       PRES   REMARKS
LITTLE ROCK    CLEAR     43  23  45 CALM      30.14S
N LITTLE ROCK    N/A     42  20  41 CALM      30.16S
JACKSONVILLE   CLEAR     37  31  76 CALM      30.13S
SEARCY         CLEAR     41  21  44 CALM      30.16S
HOT SPRINGS    CLEAR     41  23  48 E5        30.12S
RUSSELLVILLE   CLEAR     37  26  64 CALM      30.12S
CLINTON        FAIR      34  27  75 CALM      30.14S
$$

ARZ036-260300-
EAST ARKANSAS

CITY           SKY/WX    TMP DP  RH WIND       PRES   REMARKS
WEST MEMPHIS   CLEAR     39  25  57 S3        30.15R
$$

ARZ050-053-066-070-073-260300-
SOUTHWEST ARKANSAS

CITY           SKY/WX    TMP DP  RH WIND       PRES   REMARKS
ARKADELPHIA    FAIR      40  37  89 CALM      30.14S
CAMDEN         CLEAR     37  30  75 MISG      30.14S
TEXARKANA      CLEAR     41  25  53 E3        30.12S
EL DORADO      CLEAR     41  34  76 CALM      30.14R
DE QUEEN       CLEAR     40  32  73 CALM      30.10R
$$

ARZ056-057-069-260300-
SOUTHEAST ARKANSAS

CITY           SKY/WX    TMP DP  RH WIND       PRES   REMARKS
PINE BLUFF     CLEAR     42  33  70 CALM      30.15S
STUTTGART      CLEAR     45  21  39 SE3       30.16R
MONTICELLO     CLEAR     42  29  59 CALM      30.15R

$$






USA.gov is the U.S. government's official web portal to all federal, state and local government web resources and services.